[[{"header":{"parameterUnit":"m.s-1","parameterCategory":1,"la1":30.2991,"la2":30.254,"lo1":-89.0895,"lo2":-89.0444,"dy":0.0017,"dx":0.0017,"nx":28,"ny":28,"refTime":"2025-07-24T03:00:00:Z","depth":0,"parameterNumber":2,"parameterNumberName":"U-component_of_WINDS"},"data":[0,0,0,0,0,0,0,0,0,0,0,0,0,0,0,0,0,0,0,0,0,0,0,0,0,0,0,0,0,0,0,0,0,0,0,0,0,0,0,0,0,0,0,0,0,0,0,0,0,0,0,0,0,0,0,0,0,0,2.3957,2.3957,0,2.3968,2.3968,2.3968,2.3905,2.3903,2.3901,2.39,2.3909,2.3911,2.3912,0,0,0,0,0,0,0,0,0,0,0,0,0,2.388,2.3882,2.3957,2.3957,2.3957,2.3968,2.3968,2.3968,2.3905,2.3903,2.3901,2.3899,2.3908,2.391,2.3913,0,0,0,0,0,0,0,0,0,0,0,0,0,2.3904,2.3882,2.3957,2.3927,2.3924,2.3968,2.3968,2.3968,2.3906,2.3903,2.39,2.3898,2.3907,2.391,2.3913,2.3985,0,0,2.3922,2.3923,0,0,0,0,0,0,0,0,2.3903,2.3907,2.3931,2.3929,2.3926,2.3932,2.3944,2.3974,2.3906,2.3913,2.39,2.3896,2.3919,2.392,2.3928,2.3985,2.3985,2.3922,2.3924,2.3925,2.3926,0,0,0,0,0,0,0,2.3901,2.3906,2.3961,2.3932,2.3929,2.3913,2.3913,2.3949,2.393,2.3912,2.3907,2.391,2.3917,2.3926,2.3928,2.3986,2.3922,2.3924,2.3926,2.3927,2.4103,2.4106,0,0,0,0,0,0,2.3904,2.3905,2.396,2.3961,2.3908,2.3916,2.3917,2.3933,2.393,2.3927,2.3912,2.3907,2.3922,2.3925,2.3928,2.4012,2.3925,2.3928,2.3929,2.41,2.4104,2.4107,0,0,0,0,0,0,2.3902,2.3909,2.396,2.3932,2.3937,2.392,2.3939,2.3935,2.3943,2.393,2.3926,2.3925,2.392,2.3924,2.3971,2.4012,2.3929,2.3932,2.4097,2.4101,2.4105,2.4181,0,0,0,0,0,0,2.3901,2.3909,2.3936,2.3933,2.3939,2.4004,2.3942,2.3937,2.3949,2.3942,2.3941,2.3938,2.3918,2.3968,2.3974,2.4014,2.3934,2.4093,2.4099,2.4104,2.4175,2.4187,2.4198,0,0,0,0,0,2.3898,2.3956,2.3938,2.3945,2.3973,2.4006,2.4009,2.3986,2.3952,2.3979,2.3971,2.3938,2.4007,2.3973,2.398,2.4021,2.409,2.4097,2.4103,2.4169,2.4185,2.4198,0,0,0,0,0,0,2.3963,2.3955,2.3935,2.3994,2.4002,2.3995,2.4028,2.4003,2.4019,2.4012,2.3982,2.3982,2.4035,2.4033,2.3995,2.4091,2.4042,2.4051,2.409,2.4105,2.4116,2.4115,2.3936,0,0,0,0,0,2.3985,2.4013,2.4004,2.4057,2.4062,2.4045,2.4059,2.4041,2.4047,2.4049,2.4044,2.4051,2.4074,2.4089,2.411,2.4175,2.4174,2.4207,2.4219,2.4228,2.4235,2.4271,2.4285,2.4129,2.4128,2.4128,0,0,2.4028,2.4028,2.4047,2.4071,2.4074,2.4104,2.4048,2.4081,2.4103,2.4054,2.4098,2.4096,2.4101,2.4158,2.4183,2.4158,2.4279,2.4237,2.4245,2.4246,2.4279,2.4294,2.4307,2.4133,2.4132,2.4131,0,0,2.4124,2.4126,2.4171,2.4177,2.4184,2.4172,2.4183,2.4182,2.4178,2.4223,2.4187,2.4213,2.4253,2.4258,2.4267,2.4368,2.4338,2.4375,2.4436,2.447,2.4483,2.4493,2.4529,2.4543,2.4382,2.4383,2.4383,0,2.4177,2.4221,2.4197,2.4234,2.4246,2.4204,2.425,2.4256,2.4269,2.4277,2.425,2.4301,2.4301,2.4359,2.4384,2.4392,2.4404,2.4374,2.4483,2.4494,2.4503,2.4537,2.4551,2.4387,2.4387,2.4386,2.4386,0,2.4287,2.4318,2.4354,2.4369,2.4385,2.4425,2.4408,2.4427,2.4408,2.44,2.4446,2.4446,2.4466,2.4479,2.446,2.4535,2.452,2.4488,2.4438,2.4523,2.4554,2.4567,2.4394,2.4392,2.4391,2.4389,0,0,2.4421,2.4425,2.4438,2.4445,2.4451,2.4474,2.4514,2.4535,2.4552,2.4563,2.4595,2.4631,2.4603,2.4612,2.4594,2.4625,2.4705,2.459,2.4589,2.4611,2.4788,2.4811,2.4827,2.4687,2.4689,2.4691,2.4788,0,2.4514,2.4582,2.4563,2.4631,2.466,2.4623,2.4657,2.4665,2.4659,2.4682,2.4675,2.4701,2.4662,2.4668,2.4696,2.469,2.474,2.4682,2.4716,2.4717,2.4714,2.4843,2.4867,2.4958,2.48,2.4802,2.4803,0,2.4631,2.4649,2.472,2.4723,2.4735,2.4766,2.4785,2.4808,2.4816,2.4809,2.4822,2.4798,2.4837,2.4788,2.4842,2.4803,2.4816,2.4815,2.4818,2.4819,2.4764,2.4847,2.4986,2.5,2.4822,2.4821,2.4819,0,2.4722,2.4763,2.4812,2.4819,2.4823,2.4847,2.4849,2.4855,2.4869,2.4886,2.4895,2.4915,2.4926,2.4943,2.4925,2.4891,2.4981,2.4931,2.4977,2.4977,2.4996,2.4995,2.5139,2.5006,2.5006,2.5005,2.5005,0,2.4827,2.4872,2.4853,2.4882,2.4932,2.491,2.496,2.4959,2.4964,2.4993,2.4962,2.4989,2.4965,2.499,2.4977,2.5023,2.5029,2.5024,2.502,2.5026,2.5027,2.5033,2.5026,2.5009,2.5008,2.5008,2.5007,0,2.4935,2.4924,2.4975,2.4976,2.4978,2.5014,2.5015,2.5042,2.5035,2.5072,2.5079,2.5068,2.5096,2.5081,2.511,2.5101,2.5161,2.5149,2.5159,2.5155,2.5201,2.5197,2.5354,2.5373,2.5229,2.523,2.5231,0,2.5003,2.5037,2.5043,2.5061,2.5066,2.5095,2.511,2.5091,2.5108,2.5121,2.5147,2.5173,2.5193,2.524,2.5234,2.5256,2.5244,2.5297,2.5246,2.5252,2.5244,2.5242,2.5245,2.5307,2.5308,2.531,2.5311,0,2.5124,2.5117,2.5141,2.5164,2.5184,2.52,2.5214,2.523,2.5211,2.5232,2.5262,2.5278,2.5308,2.5335,2.5354,2.5356,2.5331,2.5327,2.5339,2.5345,2.535,2.5348,2.5186,2.5323,2.5322,2.5321,2.532,2.532,2.5213,2.5243,2.5252,2.528,2.5289,2.5304,2.533,2.5327,2.5352,2.5376,2.5363,2.5398,2.5406,2.5431,2.5437,2.5463,2.5442,2.5458,2.5462,2.5467,2.5473,2.5347,2.5467,2.5466,2.5466,2.5466,2.5465,0,2.5332,2.5337,2.5364,2.5385,2.5408,2.5384,2.5398,2.5418,2.545,2.5461,2.5482,2.5516,2.5542,2.5539,2.5563,2.5585,2.5574,2.5592,2.5589,2.559,2.5491,2.5478,2.56,2.56,2.56,2.56,2.56,2.56,2.5397,2.5445,2.544,2.5493,2.5498,2.5533,2.5543,2.5556,2.5565,2.5605,2.5628,2.5626,2.5632,2.5656,2.5679,2.5677,2.5687,2.5709,2.5703,2.561,2.5597,2.5584,2.5572,2.5712,2.5712,2.58,2.5801,2.5802]},{"header":{"parameterUnit":"m.s-1","parameterCategory":1,"la1":30.2991,"la2":30.254,"lo1":-89.0895,"lo2":-89.0444,"dy":0.0017,"dx":0.0017,"nx":28,"ny":28,"refTime":"2025-07-24T03:00:00:Z","depth":0,"parameterNumber":3,"parameterNumberName":"V-component_of_WINDS"},"data":[0,0,0,0,0,0,0,0,0,0,0,0,0,0,0,0,0,0,0,0,0,0,0,0,0,0,0,0,0,0,0,0,0,0,0,0,0,0,0,0,0,0,0,0,0,0,0,0,0,0,0,0,0,0,0,0,0,0,-3.056,-3.0563,0,-3.0785,-3.0788,-3.079,-3.0814,-3.0812,-3.081,-3.0808,-3.1039,-3.1047,-3.1055,0,0,0,0,0,0,0,0,0,0,0,0,0,-3.0154,-3.0162,-3.056,-3.0563,-3.0566,-3.0785,-3.0788,-3.0791,-3.0815,-3.0812,-3.0809,-3.0807,-3.1036,-3.1046,-3.1056,0,0,0,0,0,0,0,0,0,0,0,0,0,-3.035,-3.0164,-3.056,-3.0604,-3.061,-3.0784,-3.0788,-3.0792,-3.0815,-3.0812,-3.0809,-3.0805,-3.1033,-3.1045,-3.1057,-3.1202,0,0,-3.1095,-3.1101,0,0,0,0,0,0,0,0,-3.0339,-3.0365,-3.0595,-3.0601,-3.0609,-3.0768,-3.0729,-3.0929,-3.0816,-3.0738,-3.0808,-3.0804,-3.0952,-3.0971,-3.102,-3.1213,-3.1223,-3.1096,-3.1104,-3.1109,-3.1113,0,0,0,0,0,0,0,-3.0325,-3.0355,-3.0649,-3.0598,-3.0607,-3.0614,-3.0638,-3.0767,-3.0861,-3.0744,-3.0746,-3.0773,-3.0955,-3.1008,-3.1026,-3.1227,-3.1096,-3.1107,-3.1115,-3.112,-3.1551,-3.1555,0,0,0,0,0,0,-3.0303,-3.0344,-3.0642,-3.0656,-3.0462,-3.0624,-3.0651,-3.072,-3.086,-3.0878,-3.0775,-3.0773,-3.0989,-3.1011,-3.1034,-3.1214,-3.1109,-3.1121,-3.1128,-3.1548,-3.1552,-3.1557,0,0,0,0,0,0,-3.0294,-3.0329,-3.0633,-3.0501,-3.054,-3.0634,-3.0713,-3.0727,-3.078,-3.0883,-3.09,-3.0813,-3.0987,-3.1017,-3.1161,-3.1223,-3.1126,-3.1138,-3.1543,-3.1549,-3.1555,-3.1575,0,0,0,0,0,0,-3.0282,-3.0326,-3.0382,-3.0502,-3.0547,-3.0755,-3.0716,-3.0734,-3.0801,-3.08,-3.0923,-3.094,-3.0987,-3.1142,-3.1173,-3.1238,-3.1147,-3.1538,-3.1546,-3.1553,-3.1569,-3.1581,-3.1591,0,0,0,0,0,-3.0268,-3.0378,-3.0384,-3.042,-3.0618,-3.0759,-3.0784,-3.0836,-3.0806,-3.0863,-3.093,-3.0936,-3.1211,-3.1157,-3.1192,-3.1261,-3.1534,-3.1543,-3.1552,-3.1564,-3.1578,-3.159,0,0,0,0,0,0,-3.0263,-3.0395,-3.0403,-3.0555,-3.0646,-3.0762,-3.0836,-3.0849,-3.095,-3.0945,-3.1004,-3.1032,-3.1174,-3.1232,-3.1169,-3.141,-3.1369,-3.1386,-3.1367,-3.1381,-3.1392,-3.1375,-3.1158,0,0,0,0,0,-3.028,-3.0382,-3.0492,-3.0616,-3.0661,-3.0741,-3.0804,-3.0835,-3.0932,-3.097,-3.1047,-3.114,-3.1248,-3.1318,-3.1422,-3.1577,-3.1605,-3.1643,-3.1653,-3.1662,-3.1676,-3.1763,-3.1782,-3.1586,-3.1586,-3.1586,0,0,-3.0315,-3.04,-3.0461,-3.0617,-3.0691,-3.0797,-3.0773,-3.0885,-3.0965,-3.0987,-3.1128,-3.1188,-3.1296,-3.1447,-3.1517,-3.15,-3.1736,-3.1673,-3.1679,-3.1689,-3.1775,-3.1793,-3.1809,-3.1593,-3.1591,-3.159,0,0,-3.0434,-3.0508,-3.062,-3.0695,-3.0806,-3.0859,-3.0886,-3.1001,-3.1042,-3.1184,-3.1204,-3.1299,-3.1483,-3.156,-3.1623,-3.1772,-3.1782,-3.1805,-3.1862,-3.1947,-3.1962,-3.1976,-3.203,-3.2049,-3.1818,-3.1818,-3.1818,0,-3.0465,-3.0624,-3.0676,-3.0789,-3.0857,-3.0883,-3.0997,-3.1067,-3.1207,-3.1255,-3.1233,-3.1465,-3.154,-3.1709,-3.1746,-3.1796,-3.1829,-3.1791,-3.1955,-3.197,-3.1984,-3.2036,-3.2057,-3.182,-3.182,-3.182,-3.1819,0,-3.0656,-3.0767,-3.0844,-3.0979,-3.1056,-3.1169,-3.1239,-3.1311,-3.1336,-3.1391,-3.1537,-3.1627,-3.1751,-3.1794,-3.1819,-3.1968,-3.1953,-3.1943,-3.1904,-3.2004,-3.2054,-3.2075,-3.1823,-3.1822,-3.1822,-3.1821,0,0,-3.0778,-3.0941,-3.0969,-3.1031,-3.1157,-3.1243,-3.1358,-3.1479,-3.154,-3.1637,-3.1735,-3.189,-3.1882,-3.1953,-3.1988,-3.2063,-3.2177,-3.2044,-3.2047,-3.2066,-3.2347,-3.2355,-3.2377,-3.2184,-3.2188,-3.2191,-3.2338,0,-3.0912,-3.1116,-3.1167,-3.1342,-3.1445,-3.1471,-3.1571,-3.166,-3.1714,-3.1811,-3.1871,-3.1981,-3.1961,-3.2005,-3.2079,-3.2147,-3.2234,-3.2137,-3.2277,-3.2281,-3.225,-3.2403,-3.2412,-3.2546,-3.2358,-3.2362,-3.2364,0,-3.1096,-3.1196,-3.1381,-3.1494,-3.154,-3.1629,-3.1744,-3.1836,-3.1937,-3.1972,-3.2052,-3.208,-3.2202,-3.2156,-3.2325,-3.2257,-3.2318,-3.236,-3.2366,-3.2382,-3.2329,-3.2424,-3.259,-3.2611,-3.2395,-3.2393,-3.2391,0,-3.1167,-3.1349,-3.1483,-3.1535,-3.1671,-3.1733,-3.1792,-3.189,-3.196,-3.2062,-3.2108,-3.2222,-3.2285,-3.2373,-3.2431,-3.2393,-3.2596,-3.2555,-3.2629,-3.2628,-3.2672,-3.2668,-3.2851,-3.2709,-3.2709,-3.2708,-3.2708,0,-3.1312,-3.1424,-3.1517,-3.16,-3.1727,-3.1785,-3.1909,-3.1969,-3.2057,-3.2152,-3.2182,-3.2271,-3.2342,-3.2442,-3.2488,-3.2622,-3.265,-3.2682,-3.2693,-3.268,-3.2676,-3.2721,-3.2713,-3.2714,-3.2712,-3.2711,-3.271,0,-3.1414,-3.148,-3.1629,-3.1745,-3.1777,-3.1865,-3.1965,-3.2048,-3.2103,-3.2224,-3.2256,-3.2343,-3.2462,-3.2529,-3.2678,-3.2709,-3.2859,-3.2865,-3.2824,-3.283,-3.2901,-3.2894,-3.3119,-3.3153,-3.2987,-3.2989,-3.299,0,-3.1502,-3.1589,-3.1715,-3.1781,-3.1841,-3.1947,-3.2019,-3.2079,-3.2153,-3.2276,-3.2343,-3.2464,-3.2563,-3.2752,-3.283,-3.2944,-3.2954,-3.3025,-3.2971,-3.2956,-3.2957,-3.2951,-3.2961,-3.3035,-3.3036,-3.3037,-3.3038,0,-3.1652,-3.1681,-3.1783,-3.1897,-3.1982,-3.2074,-3.2166,-3.2219,-3.2295,-3.2376,-3.2498,-3.2575,-3.2728,-3.2848,-3.2969,-3.3031,-3.3049,-3.3055,-3.3078,-3.3066,-3.304,-3.3056,-3.2851,-3.3049,-3.3048,-3.3047,-3.3047,-3.3046,-3.1751,-3.183,-3.1931,-3.2044,-3.212,-3.2205,-3.2288,-3.2355,-3.2457,-3.2586,-3.2615,-3.2744,-3.2845,-3.3009,-3.3075,-3.3177,-3.3164,-3.3198,-3.3207,-3.3214,-3.3217,-3.3022,-3.3199,-3.3199,-3.3199,-3.3198,-3.3198,0,-3.1903,-3.197,-3.2073,-3.2201,-3.229,-3.2298,-3.2401,-3.2475,-3.2588,-3.268,-3.2777,-3.2918,-3.3035,-3.3122,-3.3241,-3.3306,-3.3317,-3.3336,-3.3332,-3.3347,-3.3221,-3.319,-3.3325,-3.3325,-3.3325,-3.3325,-3.3325,-3.3325,-3.1993,-3.2128,-3.2169,-3.2342,-3.2408,-3.2534,-3.2592,-3.2672,-3.2746,-3.2902,-3.2999,-3.3054,-3.3145,-3.3272,-3.338,-3.3402,-3.3446,-3.3463,-3.3487,-3.3369,-3.3355,-3.3342,-3.3313,-3.3472,-3.3472,-3.3604,-3.3605,-3.3606]}]]